This is the latest recevied weather packets stored in our database for station/object DJ2DS-13. If no packets are shown the sender has not sent any weather packets the latest 10 day(s).
| Time | Temp. | Humidity | Pressure | Rain* | Wind** | Luminosity | Snow |
|---|---|---|---|---|---|---|---|
| 1777739643 | 20° C | 68% | 1013.5 hPa | 0 mm | - | 202 W/m² | - |
| 1777739343 | 20° C | 68% | 1013.5 hPa | 0 mm | - | 183 W/m² | - |
| 1777739043 | 20° C | 66% | 1013.6 hPa | 0 mm | - | 169 W/m² | - |
| 1777738744 | 20.56° C | 65% | 1013.6 hPa | 0 mm | - | 165 W/m² | - |
| 1777738443 | 20.56° C | 66% | 1013.7 hPa | 0 mm | - | 167 W/m² | - |
| 1777738142 | 20.56° C | 64% | 1013.7 hPa | 0 mm | - | 204 W/m² | - |
| 1777737842 | 20.56° C | 66% | 1013.8 hPa | 0 mm | - | 250 W/m² | - |
| 1777737543 | 20.56° C | 63% | 1013.8 hPa | 0 mm | - | 292 W/m² | - |
| 1777737240 | 20.56° C | 64% | 1013.9 hPa | 0 mm | - | 273 W/m² | - |
| 1777736941 | 20.56° C | 65% | 1013.9 hPa | 0 mm | - | 267 W/m² | - |
| 1777736642 | 20.56° C | 64% | 1014 hPa | 0 mm | - | 271 W/m² | - |
| 1777736338 | 20.56° C | 64% | 1014 hPa | 0 mm | - | 302 W/m² | - |
| 1777736039 | 20.56° C | 64% | 1014 hPa | 0 mm | - | 294 W/m² | - |
| 1777735738 | 20° C | 63% | 1014 hPa | 0 mm | - | 237 W/m² | - |
| 1777735436 | 20° C | 62% | 1014 hPa | 0 mm | - | 239 W/m² | - |
| 1777735136 | 20° C | 63% | 1014.2 hPa | 0 mm | - | 329 W/m² | - |
| 1777734836 | 20° C | 63% | 1014.2 hPa | 0 mm | - | 234 W/m² | - |
| 1777734536 | 20° C | 65% | 1014.2 hPa | 0 mm | - | 220 W/m² | - |
| 1777734236 | 20° C | 63% | 1014.3 hPa | 0 mm | - | 237 W/m² | - |
| 1777733937 | 20° C | 63% | 1014.3 hPa | 0 mm | - | 250 W/m² | - |
| 1777733635 | 20° C | 61% | 1014.4 hPa | 0 mm | - | 271 W/m² | - |
| 1777733330 | 20° C | 58% | 1014.4 hPa | 0 mm | - | 271 W/m² | - |
| 1777733030 | 20.56° C | 56% | 1014.5 hPa | 0 mm | - | 232 W/m² | - |
| 1777732730 | 20.56° C | 55% | 1014.5 hPa | 0 mm | - | 230 W/m² | - |
| 1777732429 | 20.56° C | 52% | 1014.5 hPa | 0 mm | - | 260 W/m² | - |
* Rain latest hour (hover to see other rain measurements)
** Current wind speed in m/s (hover to see current wind gust speed)